Regional Weather Roundup
Issued by NWS

Home | Current Version | Previous Version | Text Only | Print | Product List | Glossary On
Versions: 1 2 3 4 5 6 7 8 9 10 11 12 13 14 15 16 17 18 19 20 21 22 23 24 25 26 27 28 29 30 31 32 33 34 35 36 37 38 39 40 41 42 43 44 45 46 47 48 49 50
000
ASCA44 KEWX 202220
RWRMX

LATIN AMERICA AND CARIBBEAN REGIONAL WEATHER ROUNDUP
NATIONAL WEATHER SERVICE AUSTIN/SAN ANTONIO TX
500 PM CDT SAT SEP 20 2014

NOTE: "FAIR" INDICATED FEW OR NO CLOUDS BELOW 12,000 FEET WITH NO
SIGNIFICANT WEATHER AND/OR OBSTRUCTIONS TO VISIBILITY.

BAJA CALIFORNIA

CITY           SKY/WX    TMP DP  RH WIND       PRES   REMARKS
LORETO         PTSUNNY   88  77  70 NE9       29.78  HX 100
LA PAZ         PTSUNNY   90  64  43 SE9       29.79  HX  91
MEXICALI       SUNNY     99  57  25 E13       29.74  HX  97
S.J. DEL CABO  PTSUNNY   84  72  65 E17       29.78F
TIJUANA        SUNNY     75  57  53 W14       29.92F

NORTHWESTERN MEXICO

CITY           SKY/WX    TMP DP  RH WIND       PRES   REMARKS
CULIACAN       PTSUNNY   93  77  59 NE5       29.80  HX 107
DURANGO        PTSUNNY   79  48  34 N5        30.10F
GUAYMAS        MOSUNNY   91  79  66 SW12      29.74  HX 107
HERMOSILLO     MOSUNNY   95  70  43 SW7       29.83  HX 101
CD. JUAREZ     PTSUNNY   86  63  45 NE5       29.97
LOS MOCHIS     CLOUDY    86  72  62 S13       29.80F HX  92
OBREGON        PTSUNNY   88  73  62 S10       29.75  HX  96

NORTHEASTERN MEXICO

CITY           SKY/WX    TMP DP  RH WIND       PRES   REMARKS
CHIHUAHUA      PTSUNNY   84  59  42 CALM      30.01
MATAMOROS      PTSUNNY   81  81 100 CALM      29.87  HX  91
MONCLOVA         N/A    N/A N/A N/A MISG        N/A
MONTERREY      LGT RAIN  75  72  88 NE5       29.87F
NUEVO LAREDO   PTSUNNY   84  77  79 W6        29.85  HX  94
PIEDRAS NEGRAS MOSUNNY   91  72  52 E9        29.87F HX  98
REYNOSA        PTSUNNY   81  73  78 NE6       29.85
SALTILLO       PTSUNNY   77  64  65 NE9       30.06F
TORREON        PTSUNNY   86  66  51 N3        29.96F
CD. VICTORIA   PTSUNNY   84  72  65 NE5       29.85

WESTERN MEXICO

CITY           SKY/WX    TMP DP  RH WIND       PRES   REMARKS
AGUASCALIENTES MOSUNNY   81  46  30 S9        30.12
COLIMA         PTSUNNY   81  66  61 SW6       29.93F
DEL BAJIO      PTSUNNY   79  55  44 SW7       30.16F
GUADALAJARA    PTSUNNY   79  57  47 SW5       30.06
MANZANILLO     PTSUNNY   88  75  66 SW12      29.76F HX  97
MAZATLAN       MOSUNNY   84  68  58 S15       29.79F
P. VALLARTA    CLOUDY    88  64  45 CALM      29.81F
URUAPAN        CLOUDY    73  66  78 S9        30.08F
ZACATECAS      MOSUNNY   81  45  28 SW6       30.16F

CENTRAL MEXICO

CITY           SKY/WX    TMP DP  RH WIND       PRES   REMARKS
CUERNAVACA     PTSUNNY   82  61  47 S7        29.98F
MEXICO CITY    PTSUNNY   75  46  35 NE7       30.20F
MORELIA        PTSUNNY   77  59  53 SW5       30.10
POZA RICA      SUNNY     91  73  55 E7        29.80S HX 100
PUEBLA         RAIN      79  61  53 SE5       30.22F
QUERETARO      PTSUNNY   75  50  41 N12       30.16F
S. LUIS POTOSI TSTM      64  64 100 SE16G28   30.10S
TAMPICO        MOSUNNY   86  77  74 E6        29.80F HX  97
TOLUCA         PTSUNNY   72  48  43 NW7       30.27F

SOUTHERN MEXICO

CITY           SKY/WX    TMP DP  RH WIND       PRES   REMARKS
ACAPULCO       PTSUNNY   84  77  79 W12       29.76F HX  94
B. DE HUATULCO CLOUDY    81  72  74 CALM      29.85
OAXACA         PTSUNNY   81  52  36 E3        30.05F
P. ESCONDIDO   PTSUNNY   82  73  74 S7        30.02S
VERACRUZ       MOSUNNY   90  75  62 NE7       29.76F HX 100
ZIHUATANEJO    MOSUNNY   88  75  66 SW12      29.77F HX  97

YUCATAN PENINSULA

CITY           SKY/WX    TMP DP  RH WIND       PRES   REMARKS
CAMPECHE       MOSUNNY   88  75  66 W10       29.77S HX  97
CANCUN         CLOUDY    79  75  89 N3        29.88R
CHETUMAL       PTSUNNY   88  77  70 E12       29.78F HX 100
CD. DEL CARMEN MOSUNNY   88  77  70 N13       29.77  HX 100
COZUMEL        CLOUDY    79  77  94 CALM      29.87R
MERIDA         TSTM      75  75 100 S12       29.83R
MINATITLAN     MOSUNNY   88  75  66 N14       29.75  HX  97
TAPACHULA      PTSUNNY   82  82 100 SW6       29.81S HX  97
TUX. GUTIERREZ MOSUNNY   88  72  58 NW5       29.82F HX  94
VILLAHERMOSA   PTSUNNY   90  77  66 CALM      29.77F HX 102

CENTRAL AMERICA

CITY           SKY/WX    TMP DP  RH WIND       PRES   REMARKS
MANAGUA        PTCLDY    88  75  66 S7        29.77S HX  97

CARIBBEAN

CITY           SKY/WX    TMP DP  RH WIND       PRES   REMARKS
ARUBA          PTCLDY    86  75  70 E16       29.77S HX  95
CURACAO        PTCLDY    86  77  74 E14       29.83R HX  97
KINGSTON       MOSUNNY   88  73  62 SE17      29.86R HX  96
NASSAU         PTSUNNY   82  75  78 S3        29.91R THUNDER
SAN JUAN       PTCLDY    84  77  79 E6        29.95R HX  94
SANTO DOMINGO  MOCLDY    82  75  78 E8        29.92R
ST. CROIX      PTCLDY    84  73  70 E14       29.95R HX  91
ST. KITTS      PTCLDY    84  77  79 E14       29.94  HX  94
ST. MAARTEN    PTCLDY    84  75  74 E13       29.94S HX  92
ST. THOMAS     MOCLDY    82  77  83 E9        29.95  HX  91

$$




USA.gov is the U.S. government's official web portal to all federal, state and local government web resources and services.